Regional Weather Roundup
Issued by NWS

Home | Current Version | Previous Version | Graphics & Text | Print | Product List | Glossary On
Versions: 1 2 3 4 5 6 7 8 9 10 11 12 13 14 15 16 17 18 19 20 21 22 23 24 25 26 27 28 29 30 31 32 33 34 35 36 37 38 39 40 41 42 43 44 45 46 47 48 49 50
000
ASUS43 KBIS 072002
RWRND

NORTH DAKOTA REGIONAL WEATHER ROUNDUP
NATIONAL WEATHER SERVICE BISMARCK ND
200 PM CST WED DEC 07 2016

NOTE: "FAIR" INDICATES FEW OR NO CLOUDS BELOW 12,000 FEET WITH NO
SIGNIFICANT WEATHER AND/OR OBSTRUCTIONS TO VISIBILITY.


NDZ001>003-009>011-017-072100-
NORTHWEST NORTH DAKOTA

CITY           SKY/WX    TMP DP  RH WIND       PRES   REMARKS
WILLISTON      CLOUDY     1  -7  68 NW17      30.43S WCI -19
MINOT          LGT SNOW   7   2  80 W33G45    30.23R VSB 3/4 WCI -17
MINOT AFB      HVY SNOW   5   1  82 NW37G46   30.21S VSB 1/4 WCI -21
$$

NDZ018>021-031>035-040>046-072100-
SOUTHWEST NORTH DAKOTA

CITY           SKY/WX    TMP DP  RH WIND       PRES   REMARKS
BISMARCK       CLOUDY     5  -2  72 NW21G37   30.28S WCI -16
DICKINSON      MIX PCPN   0  -7  72 NW29G44   30.30R VSB 1   WCI -26
GARRISON         N/A      2  -3  80 NW31G47   30.24R WCI -24
HETTINGER ARPT PTSUNNY    4  -3  73 NW36G43   30.31S HAZE    WCI -22
$$

NDZ004>008-012>016-024-026-027-054-072100-
NORTHEAST NORTH DAKOTA

CITY           SKY/WX    TMP DP  RH WIND       PRES   REMARKS
GRAND FORKS    LGT SNOW  19  14  81 NW24G30   29.99R BLWGSNOWWCI   2
GRND FRKS AFB  LGT SNOW  18  13  81 NW21G29   30.00R WCI   2
DEVILS LAKE    SNOW      11   8  88 NW31      30.06R VSB 1/4 WCI -11
$$

NDZ022-023-025-028>030-036>039-047>053-072100-
SOUTHEAST NORTH DAKOTA

CITY           SKY/WX    TMP DP  RH WIND       PRES   REMARKS
FARGO          LGT SNOW  16   9  74 W25G31    30.05S WCI  -3
JAMESTOWN      LGT SNOW   9   5  84 NW31G39   30.12R VSB 3/4 WCI -14
$$





USA.gov is the U.S. government's official web portal to all federal, state and local government web resources and services.